Location: Knowlton
(51.2333°N, 1.2667°E)
Time: 09:41:23
(UTC+00:00)

Cosmos-2242 - Pass Details

Date: 18 April 2021
Orbit: 589 x 618 km, 82.5° (Epoch: 05 May)

Event Time Altitude Azimuth Distance (km) Brightness Sun altitude
Exits shadow 22:02:37 21° 234° (SW) 1,384 4.8 -23.1°
Maximum altitude 22:04:58 36° 288° (WNW) 960 4.4 -23.3°
Drops below altitude 10° 22:08:59 10° 356° (N) 1,958 6.5 -23.6°
Sets 22:11:21 0° 5° (N) 2,860 7.4 -23.7°
